Weather History for K20V - July, 2013

Change the Weather History Date:

Friday, July 19, 2013

  Actual Average (KEGE) Record (KEGE)
Temperature  
Mean Temperature 71 °F -  
Max Temperature 89 °F 84 °F 95 °F (1963)
Min Temperature 53 °F 49 °F 36 °F (1950)
Cooling Degree Days 6    
Growing Degree Days 21 (Base 50)    
Moisture  
Dew Point 43 °F    
Average Humidity 50    
Maximum Humidity 94    
Minimum Humidity 13    
Precipitation  
Precipitation 0.00 in - - ()
Sea Level Pressure  
Sea Level Pressure 30.33 in    
Wind  
Wind Speed 3 mph (East)    
Max Wind Speed 16 mph    
Max Gust Speed 23 mph    
Visibility 10 miles    
Events Thunderstorm    
Averages and records for this station are not official NWS values.
T = Trace of Precipitation, MM = Missing Value Source: NWS Daily Summary

Daily Weather History Graph

Daily Weather History Graph

Search for Another Location

Airport or City:

Trip Planner

Search our weather history database for the weather conditions in past years. The results will help you decide how hot, cold, wet, or windy it might be!

Date:

Astronomy

Jul. 19, 2013 Rise Set
Actual Time 5:52 AM MDT 8:30 PM MDT
Civil Twilight 5:21 AM MDT 9:02 PM MDT
Nautical Twilight 4:41 AM MDT 9:41 PM MDT
Astronomical Twilight 3:57 AM MDT 10:25 PM MDT
Moon 5:36 PM MDT (7/19) 2:36 AM MDT (7/19)
Length of Visible Light 15h 41m
Length of Day
14h 38m
Waxing Gibbous, 87% of the Moon is Illuminated
Jul 19
Waxing Gibbous
Jul 22
Full
Jul 29
Last Quarter
Aug 6
New
Aug 14
First Quarter

Hourly Weather History & Observations

Time (MDT) Temp. Dew Point Humidity Pressure Visibility Wind Dir Wind Speed Gust Speed Precip Events Conditions
12:16 AM 59.0 °F 51.8 °F 77% 30.41 in 10.0 mi Calm Calm - N/A   Clear
12:36 AM 59.0 °F 51.8 °F 77% 30.41 in 10.0 mi Calm Calm - N/A   Clear
12:56 AM 59.0 °F 51.8 °F 77% 30.41 in 10.0 mi Calm Calm - N/A   Clear
1:16 AM 59.0 °F 51.8 °F 77% 30.40 in 10.0 mi Calm Calm - N/A   Clear
1:36 AM 59.0 °F 51.8 °F 77% 30.40 in 10.0 mi Calm Calm - N/A   Clear
1:56 AM 59.0 °F 53.6 °F 82% 30.40 in 10.0 mi Calm Calm - N/A   Clear
2:16 AM 57.2 °F 51.8 °F 82% 30.40 in 10.0 mi Calm Calm - N/A   Clear
2:36 AM 55.4 °F 51.8 °F 88% 30.39 in 10.0 mi Calm Calm - N/A   Clear
2:56 AM 55.4 °F 51.8 °F 88% 30.39 in 10.0 mi Calm Calm - N/A   Clear
3:16 AM 55.4 °F 51.8 °F 88% 30.38 in 10.0 mi Calm Calm - N/A   Clear
3:36 AM 55.4 °F 50.0 °F 82% 30.38 in 10.0 mi Calm Calm - N/A   Clear
3:56 AM 55.4 °F 51.8 °F 88% 30.38 in 10.0 mi Calm Calm - N/A   Clear
4:16 AM 53.6 °F 50.0 °F 88% 30.38 in 10.0 mi Calm Calm - N/A   Clear
4:36 AM 53.6 °F 51.8 °F 94% 30.38 in 10.0 mi Calm Calm - N/A   Clear
4:56 AM 53.6 °F 50.0 °F 88% 30.38 in 10.0 mi Calm Calm - N/A   Clear
5:15 AM 53.6 °F 50.0 °F 88% 30.39 in 10.0 mi Calm Calm - N/A   Clear
5:36 AM 53.6 °F 50.0 °F 88% 30.39 in 10.0 mi Calm Calm - N/A   Clear
5:55 AM 53.6 °F 50.0 °F 88% 30.39 in 10.0 mi Calm Calm - N/A   Clear
6:16 AM 53.6 °F 50.0 °F 88% 30.39 in 10.0 mi Calm Calm - N/A   Clear
6:36 AM 53.6 °F 50.0 °F 88% 30.39 in 10.0 mi Calm Calm - N/A   Clear
6:56 AM 53.6 °F 50.0 °F 88% 30.40 in 10.0 mi Calm Calm - N/A   Clear
7:15 AM 53.6 °F 50.0 °F 88% 30.40 in 10.0 mi Calm Calm - N/A   Clear
7:36 AM 55.4 °F 50.0 °F 82% 30.40 in 10.0 mi Calm Calm - N/A   Clear
7:56 AM 57.2 °F 50.0 °F 77% 30.41 in 10.0 mi Calm Calm - N/A   Clear
8:16 AM 59.0 °F 50.0 °F 72% 30.41 in 10.0 mi Calm Calm - N/A   Clear
8:36 AM 60.8 °F 50.0 °F 68% 30.41 in 10.0 mi Calm Calm - N/A   Clear
8:56 AM 60.8 °F 50.0 °F 68% 30.41 in 10.0 mi Calm Calm - N/A   Clear
9:16 AM 62.6 °F 50.0 °F 63% 30.40 in 10.0 mi Calm Calm - N/A   Clear
9:36 AM 64.4 °F 50.0 °F 59% 30.40 in 10.0 mi Calm Calm - N/A   Clear
9:56 AM 68.0 °F 51.8 °F 56% 30.39 in 10.0 mi Calm Calm - N/A   Clear
10:16 AM 69.8 °F 50.0 °F 49% 30.38 in 10.0 mi Calm Calm - N/A   Clear
10:36 AM 69.8 °F 46.4 °F 43% 30.37 in 10.0 mi NNW 4.6 mph - N/A   Clear
10:56 AM 71.6 °F 48.2 °F 43% 30.37 in 10.0 mi Calm Calm - N/A   Clear
11:16 AM 73.4 °F 46.4 °F 38% 30.36 in 10.0 mi Calm Calm - N/A   Clear
11:36 AM 73.4 °F 44.6 °F 36% 30.36 in 10.0 mi Calm Calm - N/A   Clear
11:56 AM 77.0 °F 42.8 °F 29% 30.34 in 10.0 mi NNW 3.5 mph - N/A   Clear
12:16 PM 77.0 °F 39.2 °F 26% 30.33 in 10.0 mi Calm Calm - N/A   Clear
12:36 PM 80.6 °F 35.6 °F 20% 30.32 in 10.0 mi WSW 4.6 mph - N/A   Clear
12:56 PM 80.6 °F 30.2 °F 16% 30.32 in 10.0 mi SE 6.9 mph - N/A   Clear
1:16 PM 82.4 °F 32.0 °F 16% 30.31 in 10.0 mi SSE 6.9 mph - N/A   Clear
1:36 PM 82.4 °F 32.0 °F 16% 30.31 in 10.0 mi South 5.8 mph - N/A   Clear
1:56 PM 82.4 °F 32.0 °F 16% 30.29 in 10.0 mi Calm Calm - N/A   Clear
2:16 PM 86.0 °F 33.8 °F 15% 30.28 in 10.0 mi Calm Calm - N/A   Clear
2:36 PM 86.0 °F 33.8 °F 15% 30.28 in 10.0 mi SE 3.5 mph - N/A   Scattered Clouds
2:56 PM 87.8 °F 30.2 °F 13% 30.27 in 10.0 mi NNW 6.9 mph - N/A   Scattered Clouds
3:16 PM 87.8 °F 35.6 °F 16% 30.26 in 10.0 mi SE 11.5 mph 16.1 mph N/A   Scattered Clouds
3:36 PM 86.0 °F 33.8 °F 15% 30.24 in 10.0 mi ESE 15.0 mph 23.0 mph N/A   Scattered Clouds
3:56 PM 87.8 °F 33.8 °F 15% 30.24 in 10.0 mi East 12.7 mph - N/A   Clear
4:16 PM 86.0 °F 33.8 °F 15% 30.24 in 10.0 mi East 9.2 mph 18.4 mph N/A   Clear
4:36 PM 86.0 °F 32.0 °F 14% 30.23 in 10.0 mi East 5.8 mph - N/A   Clear
4:56 PM 87.8 °F 32.0 °F 14% 30.22 in 10.0 mi ESE 9.2 mph - N/A   Clear
5:16 PM 87.8 °F 32.0 °F 14% 30.21 in 10.0 mi ESE 9.2 mph - N/A   Clear
5:36 PM 89.6 °F 32.0 °F 13% 30.21 in 10.0 mi East 12.7 mph 16.1 mph N/A   Scattered Clouds
5:56 PM 86.0 °F 30.2 °F 13% 30.21 in 10.0 mi East 10.4 mph - N/A   Scattered Clouds
6:16 PM 82.4 °F 32.0 °F 16% 30.21 in 10.0 mi East 8.1 mph - N/A   Scattered Clouds
6:36 PM 80.6 °F 33.8 °F 18% 30.21 in 10.0 mi East 9.2 mph - N/A   Scattered Clouds
6:56 PM 82.4 °F 33.8 °F 17% 30.21 in 10.0 mi East 10.4 mph - N/A   Mostly Cloudy
7:15 PM 80.6 °F 33.8 °F 18% 30.22 in 10.0 mi ENE 12.7 mph 19.6 mph N/A Thunderstorm Mostly Cloudy
7:36 PM 77.0 °F 35.6 °F 22% 30.22 in 10.0 mi East 10.4 mph - N/A   Scattered Clouds
7:56 PM 77.0 °F 41.0 °F 28% 30.24 in 10.0 mi East 10.4 mph - N/A   Clear
8:16 PM 73.4 °F 44.6 °F 36% 30.24 in 10.0 mi East 13.8 mph - N/A   Scattered Clouds
8:36 PM 71.6 °F 44.6 °F 38% 30.25 in 10.0 mi ESE 16.1 mph - N/A   Clear
8:56 PM 71.6 °F 46.4 °F 41% 30.26 in 10.0 mi East 10.4 mph - N/A   Mostly Cloudy
9:15 PM 71.6 °F 44.6 °F 38% 30.28 in 10.0 mi East 13.8 mph 18.4 mph N/A   Overcast
9:36 PM 69.8 °F 44.6 °F 40% 30.29 in 10.0 mi East 15.0 mph - N/A Thunderstorm Mostly Cloudy
9:55 PM 69.8 °F 42.8 °F 38% 30.30 in 10.0 mi East 16.1 mph 23.0 mph N/A Thunderstorm Clear
10:16 PM 66.2 °F 42.8 °F 43% 30.31 in 10.0 mi East 12.7 mph 20.7 mph N/A   Clear
10:36 PM 64.4 °F 41.0 °F 42% 30.31 in 10.0 mi East 6.9 mph - N/A   Clear
10:56 PM 62.6 °F 41.0 °F 45% 30.30 in 10.0 mi East 8.1 mph - N/A   Clear
11:16 PM 60.8 °F 41.0 °F 48% 30.30 in 10.0 mi Calm Calm - N/A   Clear
11:36 PM 59.0 °F 44.6 °F 59% 30.30 in 10.0 mi Calm Calm - N/A   Clear
11:56 PM 59.0 °F 42.8 °F 55% 30.29 in 10.0 mi Calm Calm - N/A   Clear